CEB433 RPVM-RPMZ

Flight info

Callsign CEB433
Flight time 0h 43m
Altitude 28000
Route ALDIN4P ALDIN G578 PARAL PARAL2W
Aircraft A20N/M-SDE2E3FGHIRWXY/LB1

Departure

Time 2026-04-28 12:16
Airport Mactan Cebu International Airport (RPVM)

Arrival

Time 2026-04-28 13:00
Airport Zamboanga International Airport (RPMZ)
Time Latitude Longitude Altitude Speed Heading
2026-04-28 12:07 10.31539 123.98080 45 ft 0 kts 225°
2026-04-28 12:09 10.31536 123.98077 45 ft 1 kts 225°
2026-04-28 12:09 10.31520 123.98061 45 ft 4 kts 224°
2026-04-28 12:09 10.31489 123.98030 45 ft 8 kts 225°
2026-04-28 12:09 10.31444 123.97985 45 ft 10 kts 227°
2026-04-28 12:10 10.31392 123.97930 45 ft 10 kts 226°
2026-04-28 12:10 10.31331 123.97896 45 ft 10 kts 160°
2026-04-28 12:10 10.31272 123.97948 45 ft 11 kts 135°
2026-04-28 12:10 10.31206 123.97980 45 ft 11 kts 200°
2026-04-28 12:11 10.31146 123.97924 45 ft 12 kts 225°
2026-04-28 12:11 10.31082 123.97862 45 ft 13 kts 224°
2026-04-28 12:11 10.31017 123.97794 45 ft 13 kts 226°
2026-04-28 12:11 10.30948 123.97724 45 ft 13 kts 224°
2026-04-28 12:12 10.30877 123.97655 45 ft 14 kts 225°
2026-04-28 12:12 10.30804 123.97582 45 ft 14 kts 225°
2026-04-28 12:12 10.30729 123.97506 45 ft 15 kts 225°
2026-04-28 12:12 10.30653 123.97429 45 ft 15 kts 224°
2026-04-28 12:13 10.30572 123.97349 45 ft 17 kts 225°
2026-04-28 12:13 10.30485 123.97260 45 ft 18 kts 225°
2026-04-28 12:13 10.30402 123.97177 45 ft 11 kts 225°
2026-04-28 12:13 10.30343 123.97168 45 ft 10 kts 143°
2026-04-28 12:14 10.30286 123.97223 45 ft 12 kts 135°
2026-04-28 12:14 10.30222 123.97288 45 ft 13 kts 134°
2026-04-28 12:14 10.30173 123.97340 45 ft 4 kts 120°
2026-04-28 12:14 10.30185 123.97369 45 ft 5 kts 46°
2026-04-28 12:15 10.30191 123.97375 45 ft 0 kts 44°
2026-04-28 12:15 10.30287 123.97472 45 ft 52 kts 45°
2026-04-28 12:15 10.30709 123.97895 45 ft 115 kts 45°
2026-04-28 12:15 10.31417 123.98604 78 ft 161 kts 44°
2026-04-28 12:16 10.32236 123.99411 527 ft 167 kts 45°
2026-04-28 12:16 10.33047 124.00240 1142 ft 168 kts 46°
2026-04-28 12:16 10.33863 124.01080 1802 ft 167 kts 46°
2026-04-28 12:16 10.34576 124.02041 2175 ft 179 kts 72°
2026-04-28 12:17 10.34527 124.03358 2476 ft 201 kts 108°
2026-04-28 12:17 10.33699 124.04594 2726 ft 228 kts 126°
2026-04-28 12:17 10.32648 124.05894 3107 ft 246 kts 125°
2026-04-28 12:17 10.31554 124.07287 3547 ft 262 kts 125°
2026-04-28 12:18 10.30415 124.08753 4242 ft 267 kts 125°
2026-04-28 12:18 10.29273 124.10234 5015 ft 268 kts 126°
2026-04-28 12:18 10.28112 124.11743 5786 ft 270 kts 126°
2026-04-28 12:18 10.26952 124.13256 6523 ft 273 kts 126°
2026-04-28 12:19 10.25784 124.14778 7233 ft 276 kts 126°
2026-04-28 12:19 10.24599 124.16322 7946 ft 279 kts 126°
2026-04-28 12:19 10.23407 124.17874 8669 ft 281 kts 126°
2026-04-28 12:19 10.22213 124.19432 9366 ft 284 kts 126°
2026-04-28 12:20 10.20974 124.20998 10030 ft 288 kts 132°
2026-04-28 12:20 10.19317 124.22189 10515 ft 301 kts 155°
2026-04-28 12:20 10.17181 124.22643 10795 ft 323 kts 179°
2026-04-28 12:20 10.14893 124.22303 11080 ft 340 kts 190°
2026-04-28 12:21 10.12515 124.21797 11344 ft 356 kts 190°
2026-04-28 12:21 10.10022 124.21269 11598 ft 371 kts 190°
2026-04-28 12:21 10.07441 124.20733 11917 ft 382 kts 190°
2026-04-28 12:21 10.04818 124.20196 12458 ft 386 kts 190°
2026-04-28 12:22 10.02180 124.19662 13033 ft 388 kts 190°
2026-04-28 12:22 9.99516 124.19124 13569 ft 391 kts 190°
2026-04-28 12:22 9.96830 124.18581 14069 ft 394 kts 190°
2026-04-28 12:22 9.94116 124.18035 14547 ft 398 kts 190°
2026-04-28 12:23 9.91382 124.17485 15020 ft 402 kts 189°
2026-04-28 12:23 9.88608 124.16929 15479 ft 405 kts 189°
2026-04-28 12:23 9.85830 124.16373 15925 ft 409 kts 189°
2026-04-28 12:23 9.83010 124.15718 16336 ft 414 kts 196°
2026-04-28 12:24 9.80342 124.14599 16754 ft 419 kts 207°
2026-04-28 12:24 9.77898 124.12987 17159 ft 423 kts 217°
2026-04-28 12:24 9.75604 124.11098 17571 ft 426 kts 219°
2026-04-28 12:24 9.73302 124.09132 17991 ft 429 kts 219°
2026-04-28 12:25 9.71028 124.07187 18408 ft 431 kts 219°
2026-04-28 12:25 9.68717 124.05222 18822 ft 433 kts 219°
2026-04-28 12:25 9.66412 124.03273 19212 ft 435 kts 219°
2026-04-28 12:25 9.64055 124.01288 19611 ft 438 kts 219°
2026-04-28 12:26 9.61720 123.99326 20008 ft 440 kts 219°
2026-04-28 12:26 9.59347 123.97334 20401 ft 442 kts 219°
2026-04-28 12:26 9.56970 123.95338 20804 ft 443 kts 219°
2026-04-28 12:26 9.54586 123.93337 21186 ft 445 kts 219°
2026-04-28 12:27 9.52188 123.91325 21570 ft 447 kts 219°
2026-04-28 12:27 9.49784 123.89307 21946 ft 449 kts 219°
2026-04-28 12:27 9.47375 123.87286 22305 ft 451 kts 219°
2026-04-28 12:27 9.44964 123.85262 22656 ft 454 kts 219°
2026-04-28 12:28 9.42507 123.83202 22999 ft 456 kts 219°
2026-04-28 12:28 9.40057 123.81148 23345 ft 459 kts 219°
2026-04-28 12:28 9.37733 123.78894 23687 ft 462 kts 227°
2026-04-28 12:28 9.35733 123.76344 24041 ft 464 kts 235°
2026-04-28 12:29 9.32544 123.70601 24712 ft 469 kts 242°
2026-04-28 12:29 9.31044 123.67648 25085 ft 470 kts 242°
2026-04-28 12:29 9.29554 123.64715 25569 ft 467 kts 242°
2026-04-28 12:30 9.28079 123.61829 26033 ft 466 kts 242°
2026-04-28 12:30 9.26574 123.58901 26455 ft 465 kts 242°
2026-04-28 12:30 9.25067 123.55981 26809 ft 466 kts 242°
2026-04-28 12:30 9.23569 123.53084 27119 ft 468 kts 242°
2026-04-28 12:31 9.22068 123.50184 27431 ft 470 kts 242°
2026-04-28 12:31 9.20551 123.47253 27743 ft 471 kts 242°
2026-04-28 12:31 9.19022 123.44299 27871 ft 473 kts 242°
2026-04-28 12:31 9.17483 123.41328 27877 ft 473 kts 242°
2026-04-28 12:32 9.15951 123.38371 27882 ft 474 kts 242°
2026-04-28 12:32 9.14424 123.35426 27887 ft 476 kts 242°
2026-04-28 12:32 9.12691 123.32505 27880 ft 483 kts 232°
2026-04-28 12:32 9.10465 123.29961 27882 ft 489 kts 221°
2026-04-28 12:33 9.07746 123.27837 27880 ft 493 kts 211°
2026-04-28 12:33 9.04766 123.26081 27883 ft 498 kts 208°
2026-04-28 12:33 9.01701 123.24355 27880 ft 502 kts 207°
2026-04-28 12:33 8.98617 123.22629 27876 ft 504 kts 207°
2026-04-28 12:34 8.95544 123.20900 27874 ft 504 kts 207°
2026-04-28 12:34 8.92475 123.19165 27873 ft 504 kts 208°
2026-04-28 12:34 8.89401 123.17420 27875 ft 504 kts 208°
2026-04-28 12:34 8.86348 123.15682 27878 ft 504 kts 208°
2026-04-28 12:35 8.83257 123.13920 27873 ft 504 kts 208°
2026-04-28 12:35 8.80214 123.12185 27879 ft 504 kts 208°
2026-04-28 12:35 8.77140 123.10432 27880 ft 504 kts 208°
2026-04-28 12:35 8.74114 123.08707 27878 ft 504 kts 208°
2026-04-28 12:36 8.71030 123.06948 27882 ft 504 kts 208°
2026-04-28 12:36 8.67961 123.05197 27883 ft 505 kts 208°
2026-04-28 12:36 8.64876 123.03439 27885 ft 504 kts 208°
2026-04-28 12:36 8.61826 123.01698 27891 ft 504 kts 208°
2026-04-28 12:37 8.58751 122.99944 27891 ft 503 kts 208°
2026-04-28 12:37 8.55716 122.98214 27897 ft 503 kts 208°
2026-04-28 12:37 8.52648 122.96466 27899 ft 502 kts 208°
2026-04-28 12:37 8.49596 122.94727 27898 ft 503 kts 208°
2026-04-28 12:38 8.46542 122.92987 27896 ft 503 kts 208°
2026-04-28 12:38 8.43481 122.91245 27902 ft 502 kts 207°
2026-04-28 12:38 8.40450 122.89519 27891 ft 496 kts 208°
2026-04-28 12:38 8.37506 122.87840 27898 ft 475 kts 208°
2026-04-28 12:39 8.34646 122.86210 27713 ft 469 kts 208°
2026-04-28 12:39 8.31806 122.84594 27469 ft 466 kts 207°
2026-04-28 12:39 8.28960 122.82974 27221 ft 464 kts 208°
2026-04-28 12:39 8.26175 122.81390 26978 ft 461 kts 207°
2026-04-28 12:40 8.23380 122.79800 26734 ft 459 kts 208°
2026-04-28 12:40 8.20577 122.78205 26489 ft 459 kts 207°
2026-04-28 12:40 8.17778 122.76614 26244 ft 460 kts 207°
2026-04-28 12:40 8.14991 122.75029 25883 ft 461 kts 207°
2026-04-28 12:41 8.12205 122.73447 25304 ft 462 kts 207°
2026-04-28 12:41 8.09387 122.71845 24555 ft 464 kts 207°
2026-04-28 12:41 8.06550 122.70232 23955 ft 460 kts 207°
2026-04-28 12:41 8.03782 122.68659 23395 ft 457 kts 207°
2026-04-28 12:42 8.00987 122.67071 22821 ft 455 kts 207°
2026-04-28 12:42 7.98230 122.65505 22243 ft 452 kts 208°
2026-04-28 12:42 7.95489 122.63948 21676 ft 450 kts 208°
2026-04-28 12:42 7.92800 122.62422 21120 ft 447 kts 208°
2026-04-28 12:43 7.90091 122.60883 20565 ft 444 kts 208°
2026-04-28 12:43 7.87390 122.59350 20014 ft 441 kts 208°
2026-04-28 12:43 7.84722 122.57835 19463 ft 438 kts 208°
2026-04-28 12:43 7.82044 122.56316 18907 ft 435 kts 208°
2026-04-28 12:44 7.79409 122.54820 18346 ft 433 kts 208°
2026-04-28 12:44 7.76800 122.53339 17792 ft 430 kts 208°
2026-04-28 12:44 7.74182 122.51854 17237 ft 427 kts 208°
2026-04-28 12:44 7.71589 122.50382 16694 ft 424 kts 208°
2026-04-28 12:45 7.69043 122.48937 16148 ft 421 kts 208°
2026-04-28 12:45 7.66469 122.47476 15598 ft 418 kts 208°
2026-04-28 12:45 7.63940 122.46043 15061 ft 415 kts 208°
2026-04-28 12:45 7.61457 122.44635 14524 ft 412 kts 208°
2026-04-28 12:46 7.58960 122.43219 13985 ft 408 kts 208°
2026-04-28 12:46 7.56479 122.41813 13447 ft 405 kts 208°
2026-04-28 12:46 7.54034 122.40426 12910 ft 402 kts 208°
2026-04-28 12:46 7.51598 122.39046 12364 ft 399 kts 208°
2026-04-28 12:47 7.49212 122.37693 11828 ft 397 kts 208°
2026-04-28 12:47 7.46793 122.36322 11315 ft 393 kts 208°
2026-04-28 12:47 7.44433 122.34984 10974 ft 383 kts 208°
2026-04-28 12:47 7.42127 122.33677 10684 ft 372 kts 208°
2026-04-28 12:48 7.39924 122.32426 10526 ft 356 kts 208°
2026-04-28 12:48 7.37790 122.31216 10374 ft 343 kts 208°
2026-04-28 12:48 7.35734 122.30050 10227 ft 329 kts 208°
2026-04-28 12:48 7.33783 122.28944 10092 ft 315 kts 208°
2026-04-28 12:49 7.31895 122.27875 9865 ft 307 kts 208°
2026-04-28 12:49 7.30037 122.26855 9481 ft 306 kts 202°
2026-04-28 12:49 7.27995 122.26370 9093 ft 300 kts 178°
2026-04-28 12:49 7.25929 122.26615 8745 ft 295 kts 167°
2026-04-28 12:50 7.23909 122.27000 8401 ft 293 kts 167°
2026-04-28 12:50 7.21899 122.27387 8056 ft 291 kts 167°
2026-04-28 12:50 7.19931 122.27755 7719 ft 289 kts 167°
2026-04-28 12:50 7.17945 122.28119 7376 ft 287 kts 167°
2026-04-28 12:51 7.15961 122.28477 7033 ft 285 kts 167°
2026-04-28 12:51 7.14027 122.28824 6696 ft 283 kts 167°
2026-04-28 12:51 7.12093 122.29169 6360 ft 281 kts 167°
2026-04-28 12:51 7.10157 122.29514 6024 ft 279 kts 167°
2026-04-28 12:52 7.08222 122.29859 5688 ft 278 kts 167°
2026-04-28 12:52 7.06325 122.30198 5363 ft 275 kts 168°
2026-04-28 12:52 7.04461 122.30529 5041 ft 269 kts 168°
2026-04-28 12:52 7.02628 122.30855 4727 ft 264 kts 168°
2026-04-28 12:53 7.00826 122.31175 4511 ft 257 kts 168°
2026-04-28 12:53 6.99093 122.31442 4429 ft 246 kts 176°
2026-04-28 12:53 6.97412 122.31218 4254 ft 245 kts 198°
2026-04-28 12:54 6.95300 122.30323 3878 ft 244 kts 204°
2026-04-28 12:54 6.92754 122.29144 3414 ft 239 kts 204°
2026-04-28 12:54 6.91349 122.28288 3113 ft 234 kts 230°
2026-04-28 12:54 6.90723 122.26870 3028 ft 216 kts 268°
2026-04-28 12:55 6.90807 122.25393 3116 ft 204 kts 277°
2026-04-28 12:55 6.90954 122.24020 3007 ft 191 kts 277°
2026-04-28 12:55 6.91074 122.22732 2873 ft 179 kts 276°
2026-04-28 12:55 6.91171 122.21538 2749 ft 165 kts 275°
2026-04-28 12:56 6.91257 122.20392 2679 ft 162 kts 275°
2026-04-28 12:56 6.91334 122.19289 2408 ft 153 kts 275°
2026-04-28 12:56 6.91407 122.18250 2188 ft 147 kts 276°
2026-04-28 12:56 6.91480 122.17226 1999 ft 147 kts 276°
2026-04-28 12:57 6.91553 122.16195 1804 ft 147 kts 276°
2026-04-28 12:57 6.91623 122.15170 1613 ft 146 kts 276°
2026-04-28 12:57 6.91668 122.14490 1485 ft 146 kts 276°
2026-04-28 12:57 6.91758 122.13138 1230 ft 144 kts 276°
2026-04-28 12:58 6.91803 122.12466 1105 ft 144 kts 276°
2026-04-28 12:58 6.91892 122.11129 854 ft 144 kts 275°
2026-04-28 12:58 6.91959 122.10134 667 ft 143 kts 275°
2026-04-28 12:58 6.92027 122.09125 482 ft 143 kts 275°
2026-04-28 12:59 6.92098 122.08128 291 ft 142 kts 276°
2026-04-28 12:59 6.92162 122.07155 95 ft 139 kts 276°
2026-04-28 12:59 6.92223 122.06258 59 ft 106 kts 274°
2026-04-28 12:59 6.92261 122.05692 59 ft 58 kts 274°
2026-04-28 13:00 6.92286 122.05303 60 ft 49 kts 274°
2026-04-28 13:00 6.92309 122.04986 60 ft 40 kts 273°
2026-04-28 13:00 6.92318 122.04858 61 ft 8 kts 286°
2026-04-28 13:00 6.92342 122.04809 61 ft 4 kts 245°
2026-04-28 13:01 6.92321 122.04812 61 ft 7 kts 123°
2026-04-28 13:01 6.92306 122.04993 60 ft 14 kts 94°
2026-04-28 13:01 6.92299 122.05100 60 ft 15 kts 94°
2026-04-28 13:02 6.92291 122.05212 60 ft 18 kts 94°
2026-04-28 13:02 6.92283 122.05354 60 ft 22 kts 93°
2026-04-28 13:02 6.92272 122.05524 60 ft 25 kts 94°
2026-04-28 13:02 6.92260 122.05701 59 ft 25 kts 94°
2026-04-28 13:03 6.92249 122.05870 59 ft 21 kts 94°
2026-04-28 13:03 6.92238 122.05965 59 ft 8 kts 114°
2026-04-28 13:03 6.92189 122.06010 59 ft 9 kts 141°
2026-04-28 13:03 6.92147 122.06052 59 ft 8 kts 111°
2026-04-28 13:04 6.92141 122.06112 59 ft 9 kts 93°
2026-04-28 13:04 6.92134 122.06146 59 ft 3 kts 139°
2026-04-28 13:04 6.92106 122.06162 59 ft 5 kts 155°
2026-04-28 13:04 6.92068 122.06178 59 ft 4 kts 156°
2026-04-28 13:05 6.92061 122.06181 59 ft 3 kts 156°